Ames, IA

10:54 AM CDT on September 22, 2017 (GMT -0500)
Ames Municipal

Weather History for KAMW - May, 2013

Change the Weather History Date:

Monday, May 6, 2013

  Actual Average Record
Temperature  
Mean Temperature 59 °F 57 °F  
Max Temperature 73 °F 68 °F 99 °F (1934)
Min Temperature 44 °F 46 °F 28 °F (1989)
Degree Days  
Heating Degree Days 6 9  
Month to date heating degree days 124 57  
Since 1 July heating degree days 6822 6679  
Cooling Degree Days 0 1  
Month to date cooling degree days 0 1  
Year to date cooling degree days 3 4  
Growing Degree Days 8 (Base 50)    
Moisture  
Dew Point 49 °F    
Average Humidity 71    
Maximum Humidity 100    
Minimum Humidity 41    
Precipitation  
Precipitation 0.00 in 0.14 in 2.11 in (1960)
Month to date precipitation 2.66 0.85  
Sea Level Pressure  
Sea Level Pressure 30.06 in    
Wind  
Wind Speed 6 mph (NNW)    
Max Wind Speed 14 mph    
Max Gust Speed 17 mph    
Visibility 9 miles    
Events      
T = Trace of Precipitation, MM = Missing Value Source: NWS Daily Summary

Daily Weather History Graph

Daily Weather History Graph

Search for Another Location

Airport or City:

Trip Planner

Search our weather history database for the weather conditions in past years. The results will help you decide how hot, cold, wet, or windy it might be!

Date:

Astronomy

May. 06, 2013 Rise Set
Actual Time 6:03 AM CDT 8:19 PM CDT
Civil Twilight 5:32 AM CDT 8:50 PM CDT
Nautical Twilight 4:54 AM CDT 9:28 PM CDT
Astronomical Twilight 4:12 AM CDT 10:10 PM CDT
Moon 4:09 AM CDT (5/6) 5:17 PM CDT (5/6)
Length of Visible Light 15h 17m
Length of Day
14h 15m
Waning Crescent, 11% of the Moon is Illuminated
May 6
Waning Crescent
May 9
New
May 17
First Quarter
May 24
Full
May 31
Last Quarter

Hourly Weather History & Observations

Time (CDT) Temp. Windchill Dew Point Humidity Pressure Visibility Wind Dir Wind Speed Gust Speed Precip Events Conditions
12:53 AM 48.9 °F - 46.9 °F 93% 30.08 in 5.0 mi NNW 9.2 mph - N/A   Clear
1:53 AM 46.9 °F - 46.0 °F 97% 30.08 in 6.0 mi NW 9.2 mph - N/A   Clear
2:53 AM 46.0 °F 41.4 °F 45.0 °F 96% 30.07 in 6.0 mi NW 9.2 mph - N/A   Clear
3:53 AM 46.0 °F 41.9 °F 44.1 °F 93% 30.07 in 7.0 mi NNW 8.1 mph - N/A   Clear
4:53 AM 45.0 °F 39.3 °F 44.1 °F 97% 30.06 in 7.0 mi NNW 11.5 mph - N/A   Clear
5:53 AM 44.1 °F 38.6 °F 43.0 °F 96% 30.08 in 7.0 mi North 10.4 mph - N/A   Clear
6:53 AM 45.0 °F 39.7 °F 43.0 °F 93% 30.09 in 6.0 mi NNW 10.4 mph - N/A   Clear
7:53 AM 46.0 °F 40.6 °F 44.1 °F 93% 30.12 in 8.0 mi North 11.5 mph - N/A   Clear
8:53 AM 51.1 °F - 46.9 °F 86% 30.11 in 8.0 mi North 9.2 mph - N/A   Clear
9:53 AM 55.0 °F - 48.9 °F 80% 30.10 in 10.0 mi NNW 6.9 mph - N/A   Clear
10:53 AM 59.0 °F - 51.1 °F 75% 30.10 in 10.0 mi North 3.5 mph - N/A   Clear
11:53 AM 64.0 °F - 52.0 °F 65% 30.09 in 10.0 mi North 4.6 mph - N/A   Clear
12:53 PM 66.0 °F - 55.0 °F 68% 30.07 in 10.0 mi Calm Calm - N/A   Partly Cloudy
1:53 PM 69.1 °F - 55.0 °F 61% 30.06 in 10.0 mi NNW 4.6 mph - N/A   Clear
2:53 PM 71.1 °F - 54.0 °F 55% 30.04 in 10.0 mi NNE 5.8 mph - N/A   Overcast
3:53 PM 71.1 °F - 51.1 °F 49% 30.03 in 10.0 mi North 4.6 mph - N/A   Overcast
4:53 PM 73.0 °F - 48.9 °F 42% 30.01 in 10.0 mi WNW 3.5 mph - N/A   Mostly Cloudy
5:53 PM 71.1 °F - 48.0 °F 44% 30.01 in 10.0 mi WNW 4.6 mph - N/A   Mostly Cloudy
6:53 PM 71.1 °F - 50.0 °F 47% 30.01 in 10.0 mi North 5.8 mph - N/A   Mostly Cloudy
7:53 PM 66.0 °F - 50.0 °F 56% 30.01 in 10.0 mi North 6.9 mph - N/A   Clear
8:53 PM 62.1 °F - 51.1 °F 67% 30.02 in 10.0 mi NNW 3.5 mph - N/A   Clear
9:53 PM 57.9 °F - 51.1 °F 78% 30.04 in 10.0 mi Calm Calm - N/A   Clear
10:53 PM 55.0 °F - 50.0 °F 83% 30.05 in 10.0 mi NW 3.5 mph - N/A   Clear
11:53 PM 55.9 °F - 48.9 °F 77% 30.05 in 10.0 mi Calm Calm - N/A   Clear